Theta_e
316 316 317 319 318 320 324 323 319 321 320 313 315 316 316 319 320 320 320 320 319 317 316 315 315 316 318 318 319 319 318 318 319 316 318 326 322 318 320 321 323 327 329 332 336 337 337 338 340 341 341 341 341 341 340 339 337 337 337 336 333 333 335 336 337 338 338 339 339 339 339 339 339 338 337 336 336 335 335 335 336 335 334 335 336 336 336 336 335 333 331 328 325 324 322 321 320
317 319 320 321 321 321 323 323 318 317 316 312 315 316 316 319 319 320 320 319 319 317 315 315 315 315 316 317 317 318 319 319 320 320 322 322 321 322 320 321 323 326 330 332 336 337 338 339 339 341 341 340 341 341 340 339 338 338 336 335 333 334 337 337 337 338 339 339 339 339 339 339 338 337 336 335 334 334 334 334 334 333 330 330 332 332 331 331 330 328 326 324 321 319 317 315 314
318 322 323 322 323 323 324 322 316 314 314 311 313 318 317 318 318 319 319 318 318 314 315 317 315 315 315 317 317 318 320 319 319 319 321 320 324 327 321 321 321 326 330 332 337 338 340 340 339 341 340 340 340 340 340 339 338 338 337 336 335 337 337 337 338 339 340 339 339 339 339 338 337 336 334 333 333 333 333 333 333 333 330 328 329 328 327 326 324 323 321 319 316 313 311 310 309
320 324 324 324 323 323 324 321 318 313 311 310 310 316 318 317 318 318 318 317 316 313 315 318 317 316 316 318 318 318 319 319 320 319 322 323 326 328 322 321 320 325 331 332 337 338 341 340 339 340 340 340 340 340 340 339 339 338 338 337 337 337 337 338 338 339 340 339 339 339 338 337 336 334 333 333 332 332 332 332 332 332 330 328 327 326 324 322 320 318 316 313 310 308 307 306 306
322 323 323 324 323 322 323 321 320 315 311 312 311 314 318 316 318 317 317 317 316 314 315 318 319 317 315 317 317 318 320 319 321 319 323 324 323 326 323 321 320 325 330 333 337 339 340 339 338 339 340 340 339 340 339 340 339 338 338 337 337 337 337 337 338 339 339 339 339 338 338 336 335 334 333 332 331 331 331 331 331 331 329 328 326 324 322 319 317 313 310 308 305 304 304 303 303
323 321 321 322 321 321 321 317 317 315 316 317 313 315 317 316 317 317 318 317 315 314 315 317 318 317 316 317 317 319 321 320 321 320 321 323 320 324 324 321 320 325 331 333 336 339 339 339 338 339 340 340 340 340 340 339 339 339 338 337 337 337 337 337 338 338 338 339 338 338 337 335 335 333 332 331 330 330 330 329 329 329 327 325 324 321 319 315 312 308 306 304 302 301 301 301 300
324 323 321 321 320 320 319 316 315 316 318 319 316 316 317 317 318 317 318 318 315 314 314 316 315 316 318 317 317 319 318 318 321 321 319 321 320 323 324 321 320 325 331 333 336 338 338 339 338 339 340 340 340 339 340 339 339 339 338 336 336 337 337 337 338 338 338 338 337 337 336 335 334 332 331 330 328 328 328 328 328 328 325 322 321 319 316 312 308 305 303 301 300 299 299 299 299
323 323 322 321 321 321 319 317 317 318 318 318 318 318 317 318 318 317 318 318 317 316 315 315 314 317 318 314 317 319 316 316 318 319 318 319 320 323 324 322 321 325 331 333 335 338 338 339 337 338 339 339 340 340 339 338 338 338 337 336 336 337 337 337 338 338 337 337 337 335 334 334 333 332 331 329 327 326 327 327 327 326 322 319 317 314 312 308 304 302 300 299 299 299 299 299 299
320 321 321 321 320 320 317 317 318 319 319 318 318 318 318 318 318 317 318 318 317 317 316 315 314 317 318 314 318 319 316 315 315 316 316 318 318 322 325 323 322 325 330 333 335 337 337 338 337 338 339 339 339 339 339 338 338 337 337 337 336 337 336 337 337 337 336 336 335 334 333 333 332 331 329 327 326 325 326 326 325 322 317 314 312 309 307 305 302 299 299 299 299 299 299 299 299
319 320 320 321 318 316 314 316 317 318 318 317 317 317 317 316 316 316 317 318 317 317 315 313 313 316 317 316 318 319 317 315 314 315 316 317 318 321 325 324 324 326 329 333 334 336 337 338 337 338 339 339 339 338 338 337 337 337 337 336 336 337 336 337 336 336 335 335 334 333 332 331 331 330 328 326 324 324 324 322 319 316 312 309 307 305 305 304 301 299 299 299 299 299 299 299 299
320 319 319 319 315 313 312 314 316 318 317 316 317 316 316 316 315 316 316 317 316 317 314 312 314 316 316 317 319 318 315 314 314 315 315 316 317 320 325 325 325 326 328 332 333 335 337 337 337 338 338 339 338 337 337 337 337 337 337 336 336 336 336 336 335 335 334 334 333 331 330 329 329 327 326 324 324 323 320 317 313 310 308 305 304 305 304 302 300 298 299 299 299 299 298 299 298
320 320 318 317 315 314 314 315 316 318 318 318 319 317 315 314 315 316 317 317 317 317 316 315 316 316 317 317 320 317 314 313 314 315 315 316 316 319 325 326 326 326 328 331 332 334 336 337 337 338 338 338 338 337 337 337 337 336 336 336 335 335 335 334 334 334 333 333 332 330 328 327 327 325 325 323 323 321 315 312 310 307 305 304 303 305 304 301 299 298 298 298 298 298 298 298 298
320 321 319 316 317 317 317 317 317 319 318 319 319 315 312 314 316 317 317 317 316 317 317 316 315 315 317 318 319 317 316 314 313 314 315 316 316 318 324 327 327 327 328 330 331 333 335 336 336 337 337 337 337 337 337 337 337 336 336 335 335 334 334 334 333 332 332 332 330 328 326 326 326 324 323 323 323 318 312 310 307 306 304 303 303 304 303 300 299 299 298 298 298 298 298 298 298
320 321 319 317 318 318 317 316 318 318 316 318 317 313 312 315 316 316 316 317 317 317 315 314 314 315 317 317 318 318 317 314 312 313 315 316 315 318 323 326 327 328 328 329 330 332 335 335 335 336 337 337 337 336 337 336 336 336 336 335 334 334 333 332 332 331 330 329 328 327 326 325 324 324 323 322 322 315 311 310 305 304 304 303 303 302 301 300 299 298 298 298 297 297 297 297 297
319 320 319 319 318 318 318 317 319 317 316 318 315 312 312 314 314 315 316 317 317 315 312 312 313 315 317 317 317 319 315 312 312 313 314 315 315 318 323 325 327 328 327 327 328 331 333 334 335 336 336 336 336 336 336 336 335 335 335 334 334 333 332 331 330 329 328 327 327 326 325 325 324 323 322 321 320 313 311 309 304 304 305 303 302 301 300 299 298 298 298 297 297 297 297 297 297
318 320 320 319 318 317 318 318 318 317 317 318 313 310 313 314 312 314 314 313 316 313 312 314 313 314 317 316 317 316 311 311 313 313 314 315 316 320 323 325 326 327 328 327 328 330 332 333 334 335 336 335 335 335 335 335 335 334 334 333 333 332 331 330 329 328 327 326 326 325 324 324 323 322 321 320 318 312 309 307 305 306 306 303 301 299 299 297 297 297 297 297 297 297 297 297 297
317 320 319 317 317 317 318 318 317 316 317 317 313 311 315 315 311 311 310 309 314 314 313 314 313 314 315 315 315 312 310 311 312 314 316 318 320 322 323 324 325 326 328 328 328 329 330 332 333 334 335 335 335 334 334 334 334 333 332 332 331 331 329 328 327 327 326 326 325 324 324 323 323 321 320 319 316 310 307 305 305 308 306 302 300 298 297 297 297 297 297 297 297 297 297 297 297
317 320 318 316 317 318 318 318 317 315 315 316 315 313 314 315 313 312 311 311 313 314 314 313 313 313 314 314 312 310 310 311 313 316 319 321 323 324 324 325 325 326 327 327 328 329 329 331 332 333 334 335 335 334 334 334 333 333 331 330 330 329 328 327 326 325 325 325 324 324 323 323 322 321 321 319 316 310 305 304 306 309 307 302 300 298 297 297 296 297 297 297 297 297 297 297 297
318 320 318 316 318 318 316 317 316 315 315 316 315 313 312 313 314 312 313 315 314 314 316 315 314 314 314 314 312 310 311 312 314 317 320 322 323 324 325 325 326 326 327 327 328 329 330 330 331 331 332 333 334 334 334 333 333 332 330 330 329 328 327 326 326 325 325 325 324 323 323 322 321 321 320 316 313 308 305 305 307 309 306 301 298 297 297 296 296 297 297 297 297 297 297 297 297
318 318 318 318 319 317 315 315 315 315 314 315 315 313 311 312 312 312 313 315 315 315 316 316 316 315 316 315 314 312 311 313 315 316 319 321 322 323 324 326 326 325 327 327 327 328 330 331 331 331 332 332 332 333 333 332 332 331 330 329 328 327 326 325 325 325 325 324 323 323 322 321 320 319 316 310 307 307 307 307 308 308 306 301 298 297 297 296 297 297 297 297 297 297 297 297 297
317 317 317 318 317 316 316 314 314 314 313 313 313 312 313 312 311 311 313 314 315 316 317 316 316 316 316 316 315 314 313 313 314 316 318 319 321 322 323 325 325 324 325 326 326 327 328 330 330 331 331 332 332 332 331 331 331 330 330 329 328 326 326 325 325 325 324 324 323 323 322 320 318 316 312 307 308 310 310 309 309 309 306 301 298 297 297 297 297 297 297 297 296 297 297 297 297
316 316 317 317 315 315 316 315 314 312 310 311 312 313 313 312 310 312 313 314 315 316 316 317 316 316 316 315 315 314 313 313 314 315 316 317 319 320 321 322 323 324 323 324 325 325 326 327 328 329 330 332 332 331 330 330 330 329 329 327 326 326 325 325 324 325 324 323 323 322 321 318 316 314 310 308 309 311 311 310 309 308 304 299 297 297 297 297 297 296 297 297 296 296 296 297 296
315 316 317 317 316 316 316 315 314 311 311 312 313 313 313 312 313 313 313 314 315 316 316 316 316 316 315 313 313 313 313 313 314 315 316 316 317 318 319 320 321 322 322 322 322 324 324 325 327 327 327 328 329 329 328 328 328 328 327 326 325 325 325 324 324 324 323 323 323 322 320 318 316 313 310 307 307 308 308 307 306 304 300 298 297 297 297 297 297 297 297 297 296 296 296 296 296
315 316 316 316 316 315 316 315 313 312 312 314 313 313 313 314 315 314 313 314 314 315 315 315 316 316 314 312 312 312 313 313 314 315 315 315 316 317 317 318 319 319 321 320 320 322 322 323 325 325 325 325 325 325 325 326 326 326 326 325 324 324 324 324 324 323 323 323 323 322 320 318 315 312 308 305 303 303 303 302 301 299 298 297 297 297 297 296 297 297 297 296 296 296 296 296 296
315 315 316 315 314 314 314 313 312 312 312 313 312 313 314 315 315 313 313 313 313 314 314 314 314 314 313 311 311 311 311 313 314 314 314 314 314 315 316 316 317 318 318 318 319 320 320 321 322 324 325 324 324 324 324 324 324 325 325 324 324 323 322 322 323 322 322 322 322 321 319 316 313 310 306 303 301 300 300 299 298 298 297 297 296 296 296 296 297 297 296 296 296 296 296 295 295
315 315 315 314 314 314 313 312 312 312 312 312 312 313 314 313 312 312 313 313 314 314 314 313 313 313 312 311 311 311 311 312 313 313 313 313 313 313 313 314 315 315 315 317 317 317 318 319 320 322 323 324 323 323 323 323 323 324 324 323 323 322 321 320 321 322 321 321 321 318 316 314 311 308 304 301 300 299 298 297 297 297 296 296 296 296 296 296 296 297 296 296 296 296 295 295 295
312 313 313 313 313 313 311 311 311 311 311 311 311 313 314 312 311 312 314 313 313 313 313 313 312 312 312 311 311 311 311 311 312 312 312 312 312 312 311 313 313 313 313 315 315 315 316 317 318 319 321 322 323 322 322 322 322 322 323 322 322 321 320 319 319 320 321 321 319 315 313 312 309 306 303 300 298 298 297 297 297 296 296 296 296 296 296 296 296 296 296 296 295 295 295 295 294
309 310 311 312 312 312 310 310 310 310 310 309 310 312 312 312 310 312 313 313 312 312 312 312 312 312 313 312 312 311 311 311 312 311 311 312 313 312 311 312 312 311 312 313 313 314 314 315 316 317 319 320 321 322 321 320 321 321 321 321 321 321 320 318 318 319 321 321 319 314 310 309 308 306 302 299 297 297 296 296 296 296 296 296 296 296 296 296 296 296 296 295 295 295 294 294 294
308 309 311 312 311 312 312 312 310 310 309 308 309 311 311 312 311 312 313 312 311 311 311 312 312 312 313 313 312 311 311 311 311 311 311 311 312 313 312 311 311 311 311 311 312 312 313 314 314 315 317 318 320 321 320 320 320 320 320 320 320 320 319 318 316 317 320 320 317 313 309 308 307 305 302 299 297 297 296 296 296 296 296 296 296 296 296 296 296 295 295 295 294 294 294 294 294
309 309 310 311 312 312 313 312 309 309 309 308 309 310 312 314 314 314 314 312 310 310 311 312 312 312 312 312 312 311 312 312 311 311 311 311 311 312 311 311 311 310 311 311 311 311 312 312 313 314 315 316 318 319 320 320 319 320 320 319 319 319 318 318 315 316 318 319 316 313 310 308 306 304 302 299 297 296 296 296 296 296 296 295 296 296 295 295 295 295 294 294 294 293 293 293 293
310 310 309 311 312 312 313 311 308 309 309 307 310 310 312 313 314 314 313 310 310 310 311 312 312 312 312 312 312 312 312 312 312 312 312 311 311 310 310 310 310 310 310 310 310 310 311 311 311 312 313 315 316 317 319 319 319 319 319 318 318 318 318 317 316 315 316 317 317 314 311 307 305 304 302 299 297 296 296 296 296 296 296 295 295 295 295 295 295 295 294 294 293 293 292 292 292
311 310 311 313 311 312 314 312 310 310 308 307 310 311 312 313 314 314 312 309 309 309 311 311 311 311 311 312 311 311 312 312 312 312 311 311 310 309 309 309 309 309 309 309 309 309 310 310 310 311 311 313 314 315 317 318 319 318 318 318 317 317 318 318 317 315 315 316 316 315 311 308 306 304 301 299 297 296 296 296 296 296 296 295 295 295 295 295 295 294 294 294 293 293 292 292 292
312 311 313 313 313 312 313 313 311 310 309 308 309 311 312 313 313 313 312 310 309 310 310 311 311 311 311 311 311 311 311 311 312 312 312 311 310 310 309 308 308 308 308 308 308 308 309 309 309 309 310 311 312 313 315 316 318 317 317 317 316 317 317 318 317 315 315 315 316 315 312 309 307 304 301 299 297 296 295 296 295 296 296 295 295 295 294 294 294 294 294 294 293 293 292 292 291
313 313 313 313 313 312 311 313 311 309 309 310 309 310 311 312 312 312 312 311 311 311 311 311 311 312 312 312 312 311 311 311 312 312 312 312 311 310 309 308 308 308 308 308 308 308 308 308 308 308 309 309 310 312 313 315 316 316 316 316 316 317 317 317 316 315 315 315 315 315 313 310 306 304 301 299 297 296 295 295 295 296 295 294 294 294 294 294 294 294 294 294 293 292 292 292 291
314 313 313 312 312 311 311 312 311 309 309 309 309 310 310 311 311 311 311 311 311 310 311 311 311 311 311 312 312 312 312 312 312 312 312 311 311 310 309 308 308 308 308 308 307 307 307 307 308 308 308 308 308 310 312 313 314 315 315 315 315 315 315 315 315 314 314 314 314 314 313 310 307 304 302 300 297 295 295 295 295 295 295 294 294 294 293 294 294 294 294 294 293 292 292 292 291
314 313 313 312 312 311 311 312 311 309 309 309 310 310 311 311 311 311 311 311 311 311 311 311 311 311 312 312 312 313 313 312 313 313 312 312 311 310 310 309 308 308 308 307 307 307 307 307 307 307 307 307 307 308 310 312 313 313 313 313 313 313 313 313 313 313 313 313 313 313 313 310 308 305 302 300 297 295 295 295 295 295 294 294 293 293 293 294 294 293 293 293 293 292 291 292 292
312 312 313 313 312 312 312 312 312 309 309 311 311 311 311 311 311 311 312 311 312 312 312 312 312 312 312 312 313 314 313 313 314 314 313 312 311 309 309 309 308 308 308 307 306 306 306 306 306 307 306 306 306 307 309 310 312 312 312 312 312 312 312 312 312 312 312 312 312 312 312 311 309 305 302 300 297 295 295 295 294 294 294 293 293 293 294 294 294 293 293 293 292 291 291 291 291
311 312 312 313 313 313 312 312 312 309 309 311 310 311 311 311 311 311 311 311 311 312 312 312 312 312 313 313 314 314 313 313 314 314 313 312 310 309 308 308 308 308 308 308 306 306 306 306 306 306 306 306 305 306 307 308 310 311 311 311 311 311 310 310 310 310 310 310 311 311 311 310 309 306 303 300 297 295 294 294 294 294 294 293 293 293 293 294 294 293 293 292 292 291 291 291 290
311 312 313 313 313 313 313 312 311 308 308 311 311 311 311 311 311 311 312 312 312 312 312 312 312 313 313 314 313 313 312 313 314 313 312 311 310 310 309 309 308 308 308 308 307 306 306 306 306 306 306 305 305 305 305 306 308 309 310 310 310 309 308 308 308 308 308 308 308 308 308 308 307 306 304 300 297 295 294 294 294 294 294 293 293 292 293 293 293 293 293 293 292 291 292 291 290
311 312 313 313 313 314 313 312 310 308 308 310 311 310 312 312 312 312 312 312 312 312 312 312 313 313 313 313 312 312 312 313 314 312 311 311 311 311 311 310 309 308 307 307 307 306 305 305 305 305 305 305 305 304 304 305 306 306 307 308 308 307 307 306 306 306 306 306 305 305 305 305 305 304 303 300 298 295 294 294 294 294 294 293 293 293 293 293 293 293 293 293 292 291 292 291 289
313 313 313 313 314 314 313 313 311 310 311 310 310 312 314 314 315 314 313 310 310 312 312 312 313 313 313 313 313 313 312 312 312 311 311 311 312 313 312 310 308 308 308 307 306 306 305 305 305 304 305 305 304 304 304 304 304 305 305 306 306 305 305 305 304 304 304 303 303 303 303 303 303 302 301 300 297 295 294 294 294 294 294 293 293 293 293 293 293 294 293 293 292 292 292 292 290
315 315 313 312 313 313 313 314 312 312 313 312 311 314 315 314 314 315 314 312 312 314 315 314 314 313 313 313 314 314 313 312 311 310 310 311 313 313 311 309 308 308 308 306 304 304 305 304 304 304 304 305 304 304 303 303 303 304 304 305 305 304 304 304 304 304 303 302 302 302 301 301 301 300 300 298 297 295 294 294 294 294 294 293 293 293 293 293 293 293 293 293 293 293 292 292 291
314 316 315 312 312 313 313 313 313 313 314 312 311 313 315 314 314 315 315 314 314 315 316 315 314 314 313 313 313 313 312 311 311 310 310 311 312 311 309 308 307 306 305 304 303 303 304 304 304 303 304 304 304 303 303 302 303 303 303 304 304 304 304 304 303 303 302 302 301 301 301 301 300 300 299 298 297 295 294 294 294 294 294 293 293 293 292 293 293 293 293 293 293 293 292 294 293
314 315 315 314 313 314 314 313 312 313 313 312 311 313 314 315 314 314 314 314 314 315 316 316 315 314 313 313 313 312 310 310 311 311 310 309 309 308 307 307 306 304 303 302 302 302 303 303 303 303 303 303 303 302 302 302 302 303 303 303 303 303 304 304 303 302 301 301 300 300 300 299 299 299 299 298 296 295 294 294 294 294 293 293 293 293 292 292 292 293 293 293 293 292 292 294 294
314 312 311 312 312 312 312 312 312 311 312 314 313 313 315 316 314 312 313 314 315 315 315 315 314 314 313 313 313 311 309 309 310 311 309 308 308 307 306 306 305 304 303 301 301 301 301 302 302 302 302 302 302 302 301 301 302 302 303 303 303 303 303 303 303 301 300 300 299 299 299 298 298 297 297 297 296 295 295 294 294 294 293 293 293 293 293 292 292 293 293 293 292 292 292 293 294
312 310 310 311 311 311 310 311 312 312 313 315 314 313 315 317 315 313 313 314 315 316 314 314 314 313 313 314 312 309 308 309 310 309 308 308 307 306 306 305 305 304 303 302 301 300 300 301 301 301 301 301 301 301 301 301 301 301 302 302 303 303 303 302 302 301 301 300 299 299 298 297 297 297 296 296 296 295 295 294 294 294 293 293 293 293 293 292 292 292 293 293 293 292 292 292 293
311 311 312 313 312 310 310 311 311 312 315 317 314 314 315 316 317 315 314 313 314 315 314 313 314 314 314 314 310 308 308 308 308 307 306 306 306 305 305 304 304 303 302 302 301 300 299 300 300 300 300 300 300 300 300 300 300 301 301 302 302 302 302 302 302 301 301 300 299 298 298 297 296 296 296 295 295 295 294 294 294 294 293 293 293 293 293 293 292 292 292 292 293 292 292 292 292
310 311 311 313 313 311 311 311 311 314 318 316 314 314 315 316 317 314 314 313 311 312 312 313 314 313 314 313 309 307 308 307 306 305 304 304 303 303 303 303 302 302 301 300 300 299 299 299 299 300 300 299 299 299 299 299 300 300 300 301 301 301 302 302 302 301 301 300 299 298 298 297 296 296 295 295 295 294 294 294 294 294 293 293 293 293 293 292 292 292 292 292 292 292 292 292 291
309 310 311 313 315 314 315 316 314 316 318 313 311 313 314 316 315 313 313 313 312 311 311 312 312 312 312 310 307 307 306 305 304 303 302 301 301 302 302 301 301 300 300 299 299 298 298 298 298 299 299 298 298 298 298 299 299 299 300 300 300 301 301 301 301 301 300 300 299 299 298 297 297 296 295 295 294 294 294 293 293 293 293 293 293 293 292 292 292 292 292 291 292 292 292 292 291
309 311 312 314 316 317 319 318 315 317 317 310 308 312 314 314 315 314 313 313 312 310 309 311 312 310 309 307 306 306 304 303 302 301 300 299 299 300 300 300 299 299 299 299 298 298 298 298 297 298 298 297 297 297 297 297 298 299 299 299 300 300 300 300 300 300 300 300 299 298 298 298 297 296 296 295 295 294 294 293 293 293 293 293 293 293 292 292 292 292 291 291 291 291 292 291 291
310 311 312 314 316 318 320 319 318 319 317 309 308 312 315 315 314 312 311 311 311 309 309 311 311 308 306 305 304 303 301 300 300 299 298 297 298 298 298 298 298 298 297 297 298 298 298 297 297 297 297 297 297 297 297 297 297 298 298 298 299 299 299 299 300 300 299 299 299 298 298 298 297 297 296 296 295 295 294 293 293 293 293 293 292 292 292 292 292 291 291 291 291 291 291 291 291
310 310 310 313 314 315 316 317 317 316 315 312 311 313 314 314 314 311 310 310 309 309 309 309 308 305 304 303 301 300 299 298 298 297 297 296 297 297 296 296 296 296 296 296 296 297 297 297 296 297 296 296 296 296 296 296 296 296 296 297 297 298 298 298 298 299 299 299 298 298 298 297 297 297 296 296 295 295 294 293 293 293 292 292 292 292 292 292 291 291 291 290 290 290 290 290 290
310 309 311 312 311 312 313 315 315 313 314 316 314 314 314 313 315 313 311 311 310 309 308 306 304 303 301 300 299 298 297 297 296 296 295 295 296 295 295 295 295 295 295 295 295 295 295 296 296 296 296 296 296 295 295 296 296 296 295 296 296 297 297 297 298 298 298 298 298 297 297 297 297 296 296 296 295 295 294 294 293 292 292 292 292 292 291 291 291 291 290 290 290 290 290 290 289
310 311 312 311 310 310 312 314 315 315 316 317 315 316 315 315 316 315 313 314 312 308 305 303 301 300 299 298 297 296 296 296 295 295 295 295 295 294 294 294 294 294 294 294 294 294 294 294 295 295 296 295 295 295 295 295 295 295 295 295 295 296 296 296 297 297 297 297 297 297 297 296 296 296 296 295 295 295 294 294 293 292 292 292 291 291 291 291 291 291 290 290 290 290 289 289 289
310 310 310 311 312 313 314 315 316 317 319 318 317 316 316 315 316 316 315 313 310 306 303 301 300 299 298 297 297 296 295 295 295 294 294 294 294 293 293 293 293 293 293 293 293 292 293 293 293 294 294 295 295 295 295 294 294 294 294 294 295 295 295 295 296 296 296 296 296 296 296 296 296 295 295 295 295 294 294 293 293 292 292 292 291 291 291 291 290 290 290 290 290 289 289 289 289
309 308 309 312 312 313 315 315 315 318 320 320 319 318 318 317 315 315 314 309 306 304 302 300 299 297 297 296 296 295 295 294 294 294 293 293 293 293 292 292 292 292 293 293 292 292 292 292 292 292 293 293 294 294 295 294 294 294 293 294 294 294 294 295 295 295 295 296 296 296 295 295 295 295 295 295 294 294 294 293 293 292 292 292 291 291 291 290 290 290 290 290 289 289 289 288 288
311 310 312 315 313 314 316 316 316 318 319 319 320 320 319 318 316 313 310 305 303 303 302 300 298 297 296 296 295 295 294 294 293 293 292 293 293 292 292 292 292 292 292 292 292 292 292 292 292 292 292 292 292 293 294 294 294 294 293 293 293 293 293 293 294 294 294 295 295 295 295 295 295 294 294 294 294 294 293 293 293 293 292 292 291 291 291 290 290 290 289 289 289 289 289 288 288
315 313 315 316 315 316 317 318 318 317 317 318 319 318 318 316 314 309 304 302 302 302 301 300 298 297 296 296 295 294 294 293 293 292 292 292 293 292 292 292 291 291 291 291 291 291 291 291 291 291 291 291 291 292 292 293 293 293 293 293 293 292 292 292 293 293 293 293 294 294 294 294 294 294 294 294 293 293 293 293 293 292 292 292 291 291 291 290 290 290 289 289 289 289 288 288 288
Wind_Speed
2 2 1 1 2 2 2 2 3 1 2 4 2 3 1 1 3 4 2 1 2 0 1 1 2 3 1 2 4 6 6 6 5 4 2 2 3 5 17 18 16 21 29 31 29 30 27 26 25 22 21 21 20 19 18 17 16 16 15 15 15 14 12 11 10 11 10 11 11 11 11 11 11 10 9 8 8 7 7 7 7 6 5 5 5 5 5 2 2 3 4 5 6 6 6 5 5
1 1 1 2 2 2 1 1 4 1 3 5 1 2 1 1 2 4 1 4 4 3 1 2 4 5 4 5 5 7 6 7 5 4 2 3 4 6 18 20 18 23 30 31 30 29 24 25 27 24 22 21 20 19 18 18 17 16 15 15 15 13 11 11 11 11 11 12 12 12 12 11 10 9 8 7 6 6 6 5 5 4 2 2 3 2 1 3 5 5 6 7 7 7 6 6 5
1 1 1 1 2 1 1 1 4 3 4 5 2 1 1 2 4 3 2 4 5 2 1 2 3 4 6 7 5 5 4 4 5 3 2 5 4 4 17 21 19 24 29 31 31 27 21 23 27 25 24 22 21 20 18 18 17 16 15 14 14 12 11 11 11 11 12 12 13 13 12 11 10 9 8 7 6 5 5 4 4 4 2 4 2 3 4 5 6 6 7 7 6 6 5 5 4
1 1 1 2 1 1 2 2 3 4 4 3 3 1 2 4 3 2 1 3 3 1 3 2 3 2 6 8 3 4 5 3 3 4 2 3 4 4 15 22 20 24 29 32 31 25 20 23 28 27 25 23 22 21 19 18 17 17 16 15 14 13 13 12 12 12 12 13 13 12 12 10 9 8 7 6 5 5 4 4 4 4 3 5 4 5 6 6 6 5 5 5 5 5 4 4 4
3 2 1 2 2 1 1 2 1 4 4 2 3 1 2 3 4 5 3 4 3 4 4 3 2 2 4 6 2 2 3 2 2 5 2 1 6 6 15 24 20 25 30 31 29 23 19 24 28 27 26 23 22 22 21 19 18 17 16 15 15 14 14 13 13 13 14 14 13 12 11 10 9 8 7 6 5 4 4 4 4 4 5 6 6 6 6 5 5 5 4 4 4 4 4 4 4
4 4 4 2 0 1 1 3 3 5 3 1 6 6 4 3 4 7 6 6 2 3 4 4 3 1 3 3 4 4 2 1 0 4 5 3 5 7 17 24 21 25 29 29 27 21 19 25 29 28 26 24 23 23 22 21 19 18 17 16 15 15 15 15 14 14 15 14 13 11 10 10 9 8 7 6 5 5 4 5 4 5 6 7 6 6 5 5 4 4 4 4 4 4 4 3 3
3 2 3 3 2 1 4 4 4 5 1 2 6 8 8 4 2 6 8 5 1 3 4 4 2 4 4 1 3 7 8 7 2 3 6 4 5 7 18 24 22 25 28 28 25 19 19 25 30 29 26 24 23 23 22 22 20 19 18 17 16 16 16 16 15 14 14 13 12 11 9 9 8 8 9 7 5 6 6 6 6 5 7 7 6 5 4 4 4 4 4 4 4 3 3 3 2
2 1 0 2 2 1 4 4 5 4 1 2 6 8 11 8 3 7 8 4 1 2 4 5 2 5 2 2 3 3 8 12 10 9 7 7 6 7 19 26 22 25 29 28 23 18 20 26 30 29 25 23 23 22 22 22 21 20 19 19 18 17 17 16 15 14 13 12 11 10 9 8 8 8 10 9 8 8 8 8 7 7 8 8 7 6 5 5 4 5 4 4 3 3 2 2 1
2 1 1 2 2 2 3 4 4 4 4 4 7 10 11 8 5 7 9 5 4 3 4 5 5 6 1 2 6 1 3 10 13 14 11 9 7 8 19 26 22 25 29 25 20 17 21 28 29 28 26 23 23 23 23 22 21 21 19 20 19 18 18 17 15 14 14 13 12 12 10 9 10 10 9 10 9 10 9 9 9 8 9 9 8 7 6 5 5 4 4 4 3 3 3 2 2
1 2 1 1 1 3 4 4 2 2 4 4 7 11 10 7 5 6 8 6 3 3 2 1 5 9 4 5 7 1 2 6 9 12 12 11 8 10 19 25 22 25 28 21 18 18 22 28 29 27 26 25 24 24 23 22 21 21 20 21 20 19 19 17 16 16 15 13 13 13 11 11 13 11 10 10 10 10 10 10 10 10 10 9 8 7 7 6 5 5 4 4 3 3 2 2 1
1 1 0 2 2 4 3 4 3 3 3 4 7 9 8 4 4 5 6 6 3 4 2 4 4 9 7 7 5 2 4 6 6 8 11 11 9 11 18 23 22 25 26 20 17 21 25 28 29 28 27 25 25 25 23 22 22 22 22 22 21 20 19 18 17 17 15 14 14 13 11 13 14 12 12 12 11 11 11 11 11 11 10 9 8 8 8 7 7 6 5 4 3 3 2 1 1
2 1 1 3 3 4 3 5 5 6 6 5 4 2 1 2 4 3 5 5 3 5 6 8 2 2 5 5 2 1 4 7 7 8 11 11 10 12 18 22 22 22 22 18 19 27 28 25 27 28 27 26 25 25 23 23 23 22 22 23 22 21 20 19 18 17 16 16 16 14 14 15 14 13 13 13 12 12 11 11 11 11 10 9 9 9 9 8 7 7 6 5 4 3 2 1 1
2 1 2 3 1 2 2 4 5 7 6 3 1 3 2 4 4 3 3 4 4 5 4 9 3 1 6 5 2 3 4 6 8 10 10 11 11 13 18 19 18 19 18 17 23 31 30 24 25 27 28 28 27 26 25 24 24 23 22 22 22 21 21 20 18 17 18 18 17 17 17 17 16 15 15 14 13 13 12 12 12 11 10 10 10 10 10 9 8 7 6 5 4 3 2 2 2
1 1 2 2 0 2 2 4 4 4 4 1 1 3 3 4 3 3 3 5 6 3 2 4 4 3 6 4 4 3 2 4 8 9 10 12 12 14 18 17 15 16 17 19 27 32 31 26 24 25 27 28 27 26 26 26 26 25 24 23 23 22 22 21 19 18 19 20 18 19 19 19 19 17 16 15 14 13 13 13 13 12 11 11 11 11 10 9 8 7 5 5 4 3 2 2 2
1 1 2 2 1 2 3 3 2 3 4 1 1 2 3 4 2 3 5 7 5 2 2 2 4 3 3 4 5 1 3 3 6 8 10 11 12 15 15 13 13 15 17 22 30 30 29 30 28 28 28 26 25 24 25 27 28 27 26 25 23 23 22 22 22 21 21 21 20 20 20 20 20 19 18 16 15 15 14 14 14 13 13 13 13 11 10 9 8 6 5 4 3 3 2 2 2
0 1 1 3 2 2 3 3 1 3 4 0 2 2 3 3 4 4 2 4 6 1 2 4 5 5 3 6 5 3 3 3 5 8 9 10 11 12 11 11 13 16 18 23 29 30 30 33 34 34 32 28 24 24 25 26 29 29 27 26 24 23 23 23 24 24 22 22 22 21 22 22 21 20 18 16 16 16 16 16 15 14 14 14 13 12 10 9 8 7 6 5 3 2 1 1 1
1 2 3 4 3 3 3 4 3 2 4 2 3 4 6 3 4 3 1 3 9 5 4 6 6 7 8 8 3 1 4 4 5 7 8 9 9 9 9 12 14 16 22 26 28 28 31 35 36 36 36 34 28 26 25 25 28 29 28 27 26 24 24 25 25 24 23 23 24 23 24 22 19 18 17 17 17 18 18 17 16 16 16 15 13 12 10 9 8 7 6 5 3 2 0 1 1
2 2 4 5 5 4 4 6 5 1 5 6 2 4 7 6 1 1 2 6 10 10 9 9 9 11 14 12 8 7 7 5 7 9 9 9 9 10 11 13 16 18 22 26 28 28 30 35 38 38 38 38 34 32 30 29 29 29 28 28 28 26 25 25 25 25 24 25 26 25 23 20 18 17 17 18 19 19 19 18 17 17 17 16 14 12 11 10 9 8 6 5 3 2 1 1 1
4 3 4 6 6 3 3 6 5 4 8 9 5 2 4 6 2 1 5 10 8 13 14 9 11 15 17 15 14 12 9 8 10 11 12 13 13 13 13 13 16 18 20 26 33 36 36 37 40 41 40 39 38 37 35 33 31 30 29 28 29 28 27 26 25 26 26 26 28 27 21 18 18 18 19 21 21 20 20 19 19 18 18 16 14 13 12 11 10 8 6 5 4 3 2 2 1
4 3 6 8 7 4 4 6 7 8 8 10 9 2 3 5 2 1 5 11 10 14 15 10 12 14 13 12 13 12 10 11 11 13 14 15 16 15 14 15 17 21 24 27 31 38 42 42 42 42 42 41 40 38 37 36 34 32 30 29 30 28 28 28 27 29 29 28 30 26 20 20 21 20 22 23 22 21 20 20 20 19 18 17 16 14 13 12 10 8 7 6 5 5 4 4 3
2 4 9 6 2 4 6 8 9 7 4 8 9 6 8 5 2 5 6 8 11 13 14 12 15 16 13 9 8 9 10 11 12 14 16 16 17 16 16 17 19 23 24 23 25 35 44 45 45 44 44 43 42 40 39 38 36 34 31 31 30 27 28 30 30 32 32 31 31 27 22 24 25 22 24 24 22 21 21 22 22 21 20 19 18 16 15 13 10 9 8 8 7 7 6 6 5
2 8 12 9 2 5 7 5 6 4 2 5 7 8 8 3 3 9 9 9 11 12 14 13 15 16 14 11 3 6 8 11 12 15 16 18 18 18 18 17 18 19 20 22 26 35 42 46 46 45 45 45 44 43 40 38 38 36 34 35 34 30 30 32 33 33 34 34 33 32 29 28 27 25 26 26 24 22 22 23 24 23 23 21 19 17 15 13 12 11 11 10 9 9 8 8 7
6 8 9 10 7 8 7 2 2 3 3 5 6 8 6 5 10 10 12 15 16 17 18 18 19 16 10 9 6 6 9 11 12 16 18 18 20 21 21 19 18 19 22 27 30 32 36 43 47 46 46 46 45 44 39 38 40 38 35 36 37 35 35 35 36 36 36 36 35 35 34 31 29 28 28 28 28 26 26 27 27 26 24 22 20 18 16 15 14 14 13 12 11 11 10 10 9
8 9 6 8 7 10 10 3 2 3 6 7 5 9 11 14 12 6 11 16 20 22 21 19 21 17 8 8 11 12 12 12 15 18 18 19 22 23 22 21 21 19 22 29 32 30 32 40 45 47 47 45 46 44 40 40 41 40 36 37 39 38 38 38 38 39 38 38 37 37 35 33 32 31 31 31 31 30 30 30 29 27 25 23 21 19 18 17 17 16 15 14 13 12 12 11 10
10 12 8 5 5 9 10 5 5 6 8 6 6 12 19 18 11 10 14 17 20 21 21 19 19 16 9 12 15 13 13 13 17 18 17 20 22 20 21 23 20 19 25 30 31 32 34 38 42 46 47 46 45 39 33 36 39 40 38 38 41 40 40 41 40 41 41 40 39 39 37 35 34 33 33 33 33 32 32 31 30 28 26 24 22 21 20 19 18 18 17 16 15 14 13 12 11
8 11 9 7 9 11 8 7 8 8 6 5 7 16 21 12 7 15 17 17 20 18 19 18 14 14 11 12 13 13 13 14 17 17 16 18 17 18 24 25 20 25 31 28 30 35 36 36 39 43 46 47 45 36 28 30 33 36 41 43 43 43 43 42 42 43 42 42 42 41 39 37 36 35 35 35 34 34 33 32 31 29 27 25 23 23 22 21 20 19 18 18 17 16 15 14 12
1 5 9 11 14 12 6 8 11 8 6 8 11 18 20 6 2 12 9 7 10 10 14 14 10 12 11 10 11 11 12 14 17 14 13 14 13 18 24 22 24 33 33 29 34 38 36 36 37 40 44 46 46 37 30 30 29 31 39 43 43 45 46 44 43 45 44 44 44 42 41 39 38 37 37 36 36 35 35 33 32 31 29 27 25 25 24 22 21 20 20 19 18 17 16 15 14
3 3 10 13 14 13 9 11 13 8 5 9 12 16 19 7 3 16 13 4 3 7 14 14 11 12 12 11 10 8 10 15 15 11 13 15 16 20 22 23 29 34 32 35 39 37 36 38 37 39 41 44 46 40 35 33 29 28 33 34 36 39 43 47 46 45 46 45 46 44 42 41 40 39 38 38 37 37 36 35 34 33 31 29 28 27 25 24 22 21 20 19 18 18 17 16 15
3 2 9 14 12 16 14 12 8 7 5 7 9 9 13 11 12 20 16 4 4 9 15 14 12 11 11 11 9 8 10 13 12 12 16 19 19 20 23 28 32 32 33 36 37 35 37 37 38 40 40 43 46 45 41 37 31 30 31 29 30 30 33 45 49 47 47 47 47 46 43 42 42 41 40 39 38 38 37 36 36 34 33 31 30 28 27 25 24 22 21 20 19 18 18 17 16
4 1 5 11 10 12 10 5 3 4 5 9 8 6 8 12 16 19 10 3 4 9 13 13 11 10 9 9 8 10 10 11 12 14 19 20 21 21 23 26 28 30 31 31 33 36 37 38 39 40 40 43 45 46 45 41 35 33 33 31 31 28 30 43 50 48 49 48 48 47 45 44 43 42 41 40 39 39 38 37 37 36 35 33 31 30 28 27 26 25 23 22 21 20 19 18 18
5 2 3 6 6 8 4 4 6 4 4 10 9 6 9 12 16 15 3 3 5 9 13 13 11 11 10 10 10 12 12 11 14 18 21 19 18 19 22 24 25 28 28 29 33 35 36 37 39 40 42 43 44 47 47 47 42 37 37 35 31 29 34 45 48 48 50 49 50 49 47 46 45 44 43 42 41 40 40 39 38 38 37 35 33 31 30 29 28 27 25 24 23 22 21 20 19
3 3 5 5 4 8 9 4 6 6 2 8 10 5 9 12 15 13 1 4 4 9 14 14 14 16 15 13 12 13 14 14 17 21 21 16 15 19 23 26 27 28 29 30 33 33 34 36 38 40 42 43 45 47 49 51 47 42 40 35 30 33 41 47 47 49 50 50 51 51 50 48 46 45 44 43 42 42 41 41 40 39 38 36 35 34 32 31 30 29 27 26 25 24 23 21 20
4 4 8 7 7 8 8 7 4 6 3 7 11 7 8 10 12 12 5 3 6 10 16 18 19 18 16 14 11 12 14 15 18 19 16 12 14 19 21 24 26 27 29 30 31 32 33 34 37 39 41 44 45 46 48 49 47 44 41 35 34 40 45 47 47 49 50 51 52 51 51 50 48 46 45 44 44 44 43 42 41 40 39 38 37 36 34 33 32 30 29 27 26 25 24 23 21
4 5 7 7 10 9 8 9 1 5 5 6 10 10 12 15 16 17 15 13 13 16 19 20 20 18 16 13 11 12 13 14 15 14 13 11 11 15 18 21 22 24 27 28 29 31 32 33 35 37 39 41 43 43 44 45 45 44 43 40 41 44 45 46 47 47 49 50 51 52 52 51 49 48 46 46 45 45 44 43 42 42 40 39 39 37 36 35 34 32 30 29 28 26 25 23 22
8 6 7 7 8 9 10 11 3 1 5 5 8 12 15 17 18 20 20 16 16 19 18 18 19 19 17 14 13 14 13 12 12 11 12 13 13 14 17 19 21 22 24 25 27 28 30 31 33 35 37 38 39 40 39 40 39 38 38 39 41 42 43 44 46 46 48 49 51 53 53 52 51 49 48 47 47 46 45 44 44 43 42 42 41 39 38 37 35 34 32 31 30 27 25 23 22
9 7 9 10 10 10 12 14 7 2 7 9 12 16 15 16 18 18 19 16 16 20 19 17 17 17 15 14 13 12 12 11 9 10 12 12 13 14 15 18 20 21 21 23 23 25 28 29 32 33 34 36 37 35 34 33 30 29 29 32 37 40 41 42 45 47 48 50 53 54 54 54 52 51 50 49 49 48 47 46 45 45 44 43 43 41 40 40 38 36 34 32 31 28 26 24 23
6 7 10 11 11 12 13 16 9 2 5 11 12 17 17 16 18 18 20 19 18 21 20 17 17 15 14 15 13 9 9 9 8 9 9 9 11 13 14 16 17 18 19 20 21 24 26 28 30 32 32 34 35 32 31 31 28 25 25 28 32 35 39 43 46 49 50 51 53 54 55 55 54 53 52 51 51 50 49 48 47 46 45 45 44 43 42 41 39 38 35 33 31 30 27 26 25
10 10 11 11 10 13 13 15 12 0 3 9 10 17 18 16 19 19 20 21 20 18 17 17 19 18 16 13 9 6 6 8 8 8 6 6 9 11 12 13 13 14 16 17 18 20 22 24 26 28 29 31 35 34 33 33 30 27 27 27 26 25 30 38 41 44 48 50 51 53 54 54 54 55 54 54 53 52 51 49 49 48 47 46 45 44 43 42 40 39 37 33 32 30 26 27 28
11 9 9 9 8 12 12 11 8 0 2 7 10 14 15 17 21 21 21 20 17 15 13 16 19 19 13 7 7 8 9 10 9 6 5 7 10 10 10 10 11 13 14 15 15 17 17 19 21 23 26 29 33 34 35 36 32 32 31 27 25 21 21 30 34 35 40 45 47 49 51 52 53 55 55 55 54 54 53 51 50 49 48 48 47 45 44 43 42 41 40 37 33 29 22 26 32
9 9 8 8 8 10 8 5 2 0 4 9 13 14 13 15 17 16 15 13 13 14 14 17 18 14 10 7 7 9 11 10 9 7 6 8 9 9 10 12 16 18 17 16 15 15 14 16 19 21 24 27 30 33 36 36 32 32 32 29 29 24 21 25 29 34 38 39 41 44 47 49 51 52 54 55 55 55 54 53 51 51 50 50 49 48 47 46 45 44 42 40 37 31 22 23 33
9 9 8 10 11 11 10 7 5 7 8 5 10 12 7 6 6 4 2 4 7 9 13 15 10 6 5 6 6 6 6 7 8 8 7 8 7 8 13 18 21 20 17 16 15 14 12 13 15 18 21 23 27 30 33 33 31 30 28 28 27 23 22 22 23 29 31 31 34 37 40 44 46 48 51 53 55 56 55 55 53 52 52 52 51 51 50 50 48 47 45 43 41 37 29 24 30
9 8 11 15 14 13 14 11 7 8 5 1 6 10 3 3 4 3 2 2 5 7 12 11 4 2 2 4 4 2 2 3 4 6 7 6 6 9 15 19 21 19 17 16 15 13 11 9 10 12 15 17 21 26 28 30 30 27 23 23 23 20 20 23 24 25 23 26 34 35 37 42 44 46 48 51 53 54 55 55 54 54 53 53 53 53 52 51 50 49 48 46 44 42 36 26 27
9 4 8 13 12 12 12 9 5 5 5 1 3 6 6 4 5 6 6 5 8 12 13 8 4 4 3 4 5 4 5 3 2 4 5 6 9 12 15 18 19 18 19 19 18 16 14 12 10 8 9 11 16 21 24 26 25 23 22 24 24 22 21 22 23 21 18 24 32 34 38 41 44 47 48 49 51 53 54 54 54 55 54 54 55 53 52 52 52 51 49 48 47 44 38 28 25
6 1 1 5 7 8 6 5 5 5 6 3 4 5 9 8 4 5 5 4 10 15 11 6 4 5 5 4 2 6 6 5 3 2 5 9 12 13 15 16 16 17 21 23 21 19 18 16 15 11 8 7 12 17 21 24 23 21 21 23 22 22 22 18 15 18 20 23 27 31 35 37 41 45 47 48 50 51 52 53 54 55 54 54 55 54 53 53 52 51 50 49 49 47 43 34 28
2 3 2 1 1 3 1 3 5 3 6 4 5 6 6 9 2 4 3 5 11 11 4 5 4 4 5 4 6 9 5 5 4 4 9 10 12 14 14 13 14 16 20 24 25 24 22 20 19 16 12 8 8 13 17 22 24 22 20 21 21 21 20 16 13 17 21 23 26 29 31 33 36 40 43 46 48 49 51 52 53 54 55 55 55 54 53 52 52 52 52 51 50 48 47 41 32
1 5 3 3 3 2 1 3 4 3 7 5 7 9 6 10 3 5 3 4 7 5 4 2 4 3 3 3 9 7 3 4 6 9 11 11 12 13 12 12 14 15 16 19 24 27 27 26 23 20 16 11 9 11 14 18 22 23 21 20 21 19 18 17 15 16 18 20 23 26 28 30 31 36 41 44 46 48 50 51 52 53 54 54 54 54 54 53 52 52 53 53 53 50 49 48 38
2 4 1 0 2 1 1 2 1 3 9 5 11 14 8 8 2 6 4 2 3 2 3 3 4 6 6 6 9 5 4 6 9 11 13 13 15 15 14 15 18 20 22 24 25 29 31 30 27 22 19 16 13 11 11 15 18 22 22 20 20 20 18 16 15 16 17 17 19 22 24 25 28 33 38 41 45 48 49 51 52 51 51 51 53 54 55 54 53 52 52 51 53 53 51 51 46
2 2 2 3 2 1 2 1 2 4 8 2 8 12 11 8 3 3 1 1 0 1 3 7 9 9 9 7 9 8 9 10 11 11 11 12 15 18 20 21 21 23 26 27 29 32 33 31 28 23 21 20 17 13 12 12 15 19 22 22 21 21 19 17 17 18 16 17 18 19 19 21 23 28 33 36 41 46 49 49 49 49 49 50 52 53 54 54 53 52 52 52 52 54 52 52 50
3 2 2 4 4 2 3 2 3 5 6 1 3 5 9 11 6 3 6 4 0 2 4 7 9 10 10 12 12 11 12 12 11 11 11 11 13 16 19 21 22 24 26 27 28 30 30 29 28 25 23 23 20 16 14 12 13 17 20 22 22 20 19 18 18 18 17 18 19 19 19 19 20 25 31 36 40 45 47 47 48 50 51 52 52 53 53 53 53 52 52 53 53 54 55 53 53
7 6 5 5 3 3 5 4 3 6 3 2 1 3 6 10 6 6 10 5 3 2 2 4 6 9 12 14 13 12 13 12 12 12 12 13 14 15 18 20 21 24 26 26 24 24 24 26 26 25 25 26 24 20 16 13 13 15 16 19 20 18 18 19 19 19 18 18 18 20 21 20 22 27 33 38 40 43 45 47 48 49 51 51 50 51 52 51 52 51 51 53 54 55 55 55 54
6 4 3 4 4 5 6 4 5 7 3 2 2 3 4 4 1 1 3 3 5 4 4 5 6 9 12 12 11 12 13 13 12 12 14 15 16 18 19 20 21 22 24 24 23 23 23 24 25 25 26 28 27 24 20 16 14 14 15 17 18 19 18 18 18 18 19 19 19 20 21 22 25 30 34 37 38 40 43 46 46 47 48 48 47 48 49 49 49 49 48 50 52 53 53 54 54
2 2 2 4 4 5 5 4 4 4 4 2 3 4 4 3 4 3 0 2 2 3 6 9 11 13 12 11 12 12 12 12 12 13 14 15 18 20 19 20 21 21 21 20 21 23 24 24 24 23 24 25 27 27 24 19 17 15 15 16 17 18 19 19 18 18 18 19 19 20 22 24 28 30 31 34 37 39 41 43 45 46 47 46 46 45 47 47 47 47 47 47 49 51 51 52 52
3 3 4 2 1 2 5 6 1 0 6 6 5 7 6 6 9 2 6 5 6 7 10 13 13 14 13 12 11 11 11 12 11 12 12 13 16 18 19 19 20 19 18 20 22 23 23 22 22 23 24 26 28 29 28 25 21 19 18 17 16 17 18 20 20 19 19 18 19 22 24 25 28 30 30 32 35 37 38 40 43 45 46 47 47 46 46 46 46 46 46 46 47 49 49 50 50
3 3 2 2 2 1 2 4 0 2 7 5 7 13 10 7 7 3 4 6 10 11 11 13 12 13 13 11 10 10 10 10 10 11 10 11 14 16 17 18 18 19 19 21 23 23 22 21 22 22 23 25 25 26 27 27 24 22 21 19 17 17 18 19 20 20 20 18 20 23 25 26 28 30 32 33 33 34 36 38 40 42 44 46 47 46 46 46 45 45 46 47 48 47 47 48 49
0 1 1 1 2 2 2 2 1 4 7 5 7 12 10 8 7 5 10 10 12 10 10 12 12 11 10 8 9 10 9 8 9 9 9 9 11 14 16 16 17 18 19 21 22 23 24 24 24 25 25 25 26 27 27 26 26 25 23 21 19 18 17 18 19 20 20 19 21 24 25 27 29 30 32 33 32 33 34 36 38 40 42 44 45 46 45 46 46 46 45 46 47 47 46 47 47
1 1 2 2 1 2 2 1 0 3 6 5 6 7 6 4 6 12 12 9 10 7 8 9 9 9 7 6 7 7 7 7 7 8 8 8 10 12 13 13 15 15 16 17 17 19 21 22 24 26 29 31 33 33 31 29 28 27 26 24 21 18 17 17 18 19 19 19 21 23 25 28 30 30 30 31 32 33 34 36 37 39 40 42 43 44 45 45 46 47 47 47 47 47 47 47 46
2 1 1 1 1 0 2 2 2 3 6 6 6 6 4 3 7 10 6 10 9 8 8 5 5 6 6 6 5 5 6 6 5 6 6 7 9 11 11 12 13 13 15 16 17 19 22 24 24 25 26 29 30 31 31 30 28 27 27 28 25 22 19 18 17 17 18 19 21 23 26 28 28 29 29 30 32 33 34 36 37 38 40 41 41 43 45 45 46 47 48 48 48 48 49 49 47
4 4 5 6 5 3 5 7 5 5 6 5 6 8 6 4 2 2 7 8 7 7 7 5 4 5 5 5 5 4 4 4 5 5 5 6 8 10 10 12 13 14 16 18 19 20 21 22 23 22 22 23 23 24 25 25 26 28 29 30 30 29 26 22 19 18 17 18 20 21 25 27 28 28 30 30 32 33 35 36 37 38 39 40 41 42 44 46 47 48 48 48 48 48 49 50 48
Wind_Direction
324 331 338 320 323 252 265 329 277 203 264 279 275 294 230 148 330 279 269 310 290 60 181 292 167 172 197 319 319 321 300 260 290 292 339 45 283 218 187 189 184 175 180 182 183 185 183 177 173 179 183 183 183 181 182 182 183 184 182 181 184 183 178 175 173 172 169 172 169 169 165 154 149 141 138 138 135 125 120 118 116 127 126 114 110 105 107 152 245 260 283 303 311 315 315 311 303
341 352 39 77 36 264 226 346 278 268 261 279 271 267 28 94 248 256 328 9 343 36 67 261 214 233 280 315 312 297 262 225 269 307 348 297 286 224 197 190 182 176 179 184 183 183 183 180 175 177 185 185 185 184 185 186 185 187 187 184 184 181 179 178 176 175 176 176 173 171 162 153 149 144 145 146 141 130 122 121 118 128 177 179 142 154 183 257 269 279 287 294 299 302 302 297 290
89 53 100 144 57 345 177 213 267 282 278 291 325 131 86 263 253 272 6 2 353 35 256 231 225 249 246 250 263 276 270 225 256 265 268 274 274 222 202 193 185 177 180 184 183 182 181 185 180 177 185 186 187 187 188 190 188 190 190 186 184 181 180 181 179 177 179 177 174 169 159 154 149 148 152 154 149 142 136 138 142 132 203 234 218 241 261 273 275 280 285 288 292 292 288 284 278
127 85 140 225 209 223 214 239 268 274 281 292 320 104 180 278 321 334 10 356 345 251 231 215 211 197 226 249 271 270 270 256 231 219 251 266 231 229 201 196 189 179 183 185 183 181 182 190 184 179 185 186 188 189 189 192 192 194 192 188 185 184 183 183 184 179 179 178 174 166 159 158 155 158 158 164 162 153 160 156 160 153 200 244 249 258 265 271 275 275 276 278 278 276 273 272 276
105 70 105 243 238 251 242 262 262 248 275 323 313 342 210 271 318 317 310 314 300 232 222 219 230 136 228 265 287 272 278 256 190 203 245 302 226 230 198 196 191 182 185 185 183 181 185 193 188 181 185 187 189 191 191 193 194 196 195 190 187 187 185 185 186 182 181 177 173 165 164 165 164 172 170 178 180 166 175 174 169 176 215 246 254 259 263 262 263 262 262 264 265 260 261 262 269
107 76 74 82 100 347 228 248 239 242 270 315 289 302 310 281 294 307 299 302 291 218 216 220 263 295 251 240 219 251 299 307 81 194 219 272 233 223 198 195 192 186 185 186 185 184 191 194 189 184 185 189 190 192 194 194 194 196 196 192 190 189 186 186 186 184 182 176 173 169 172 178 175 187 196 191 191 187 183 187 182 186 225 242 246 253 255 252 248 251 255 256 257 250 251 254 258
166 130 74 98 117 265 251 260 265 266 270 222 272 291 305 310 302 303 302 310 135 175 205 229 288 288 265 196 224 239 244 242 243 208 209 233 237 216 197 194 193 188 185 187 187 187 197 194 188 186 187 190 191 193 194 194 195 196 196 193 191 190 187 186 184 182 182 177 174 175 180 188 186 195 205 197 195 200 189 191 186 186 229 239 234 241 235 237 241 245 245 240 243 240 247 248 245
175 206 358 239 172 223 256 263 270 275 251 228 268 271 286 304 301 290 296 303 258 194 199 219 223 260 267 138 247 225 236 238 234 243 234 236 237 212 196 194 194 190 188 188 189 191 198 194 189 188 187 190 192 193 195 195 196 196 195 193 191 190 188 185 183 181 183 183 183 189 192 197 202 202 211 217 209 202 194 189 183 192 228 234 228 232 230 238 240 237 232 228 231 229 237 239 238
56 353 211 249 216 231 253 259 267 264 249 252 262 257 269 286 283 276 277 270 266 260 216 210 196 234 353 190 251 152 223 243 237 244 244 241 233 213 198 196 196 191 189 188 191 195 197 194 190 189 187 191 193 194 196 195 195 197 194 192 191 190 188 186 186 187 189 192 193 199 202 207 209 207 225 237 219 198 191 187 189 208 226 228 227 232 231 234 229 224 223 220 221 222 224 224 226
56 3 201 231 230 254 257 257 260 242 243 253 266 264 268 275 266 256 263 274 269 254 223 149 202 233 288 288 267 208 217 246 240 246 243 238 228 212 201 199 198 193 191 189 193 196 194 193 190 189 189 192 195 197 198 196 196 196 194 191 191 190 189 189 192 196 197 199 200 206 214 221 220 221 230 229 213 196 192 196 206 219 225 226 226 224 216 212 211 214 216 213 211 213 213 203 202
203 62 259 244 242 270 284 284 278 273 270 271 274 264 269 268 248 241 239 266 258 245 217 141 213 233 255 281 268 229 254 260 240 243 242 234 224 209 203 203 200 196 196 193 197 194 192 194 191 190 193 195 197 199 198 198 198 195 194 192 192 193 193 193 198 201 201 203 205 211 221 226 225 224 219 212 207 199 200 207 214 220 223 225 219 209 204 203 205 208 209 208 205 197 197 183 161
243 132 226 257 263 280 308 301 291 298 291 271 267 208 231 182 200 243 225 255 254 252 226 181 205 234 229 263 262 208 249 255 238 236 238 225 220 209 202 205 202 200 201 199 199 193 192 196 194 193 196 197 199 201 199 198 199 198 199 197 197 199 200 199 202 206 205 208 212 215 217 220 220 213 208 206 204 202 207 211 216 221 220 217 207 201 199 202 203 202 202 198 197 188 177 156 121
262 157 229 259 295 288 298 293 292 304 295 251 223 117 122 188 211 277 236 259 242 255 244 189 185 328 249 275 280 259 228 236 240 235 230 215 214 207 201 205 204 201 201 201 201 195 192 196 197 197 199 200 201 201 199 200 201 202 204 204 203 204 207 206 207 213 212 215 218 216 212 214 213 206 205 204 200 204 211 214 217 217 213 208 200 200 201 203 202 196 195 187 185 181 161 142 117
277 185 260 273 67 269 254 280 285 293 300 93 115 134 178 222 244 273 242 276 249 232 354 182 178 239 257 271 260 246 184 223 235 227 218 210 208 205 202 203 204 200 201 203 202 197 195 197 199 200 201 202 203 203 202 204 205 205 206 208 208 208 212 211 212 217 217 218 218 213 208 211 211 204 202 201 200 207 209 212 215 210 206 203 200 202 203 202 199 195 193 187 182 171 149 131 109
287 172 266 259 211 247 215 257 295 276 292 354 121 128 201 234 219 230 238 283 288 104 48 188 177 239 237 230 268 74 120 222 218 211 207 205 202 202 203 201 203 201 205 207 203 200 198 200 203 203 203 204 205 207 207 208 209 209 210 210 210 212 216 217 215 217 217 217 216 211 207 209 210 207 203 200 203 207 207 208 208 205 203 203 204 203 202 200 197 196 192 189 184 172 149 124 96
309 186 233 261 239 241 205 212 239 253 271 254 123 128 244 220 181 244 261 292 296 120 171 203 189 253 259 238 282 74 156 228 197 200 195 197 196 198 202 203 207 206 209 209 205 205 203 203 205 207 207 207 207 209 211 213 213 212 214 215 216 217 220 221 218 218 219 216 214 210 208 209 210 210 207 203 205 208 207 207 202 200 203 204 206 203 200 199 196 196 193 192 191 185 163 104 66
208 229 237 257 241 229 200 194 200 272 299 255 155 183 251 241 164 246 333 264 268 255 213 213 205 242 248 245 275 162 234 242 198 192 181 188 188 189 201 204 206 210 211 210 208 208 207 206 207 210 210 211 210 210 211 213 214 214 216 219 220 221 222 222 219 219 217 215 213 210 210 209 207 206 205 204 207 209 209 206 200 197 202 206 205 202 199 197 196 196 196 197 200 203 218 15 10
216 229 241 252 253 236 203 214 213 286 297 277 213 185 249 273 212 201 258 240 248 262 254 229 232 244 243 249 253 250 255 236 204 192 183 186 189 193 199 201 204 210 211 210 211 210 209 210 210 211 213 213 213 214 215 215 216 216 217 219 220 220 221 222 220 217 215 215 214 212 210 205 201 200 198 201 205 208 209 206 199 196 202 206 203 201 199 196 195 196 198 201 203 212 235 297 327
226 222 243 246 250 228 194 232 223 232 275 289 288 203 238 279 315 53 267 267 262 271 271 236 235 246 241 241 238 242 242 221 207 202 201 198 200 202 199 200 204 208 208 209 212 212 211 212 212 213 214 215 215 217 218 218 218 217 217 217 218 220 222 221 218 214 213 214 215 213 207 201 199 197 198 203 206 207 207 204 199 198 202 205 203 201 199 197 197 197 199 199 200 204 211 226 252
225 217 247 249 248 243 221 236 232 240 275 289 286 279 250 263 270 242 262 277 274 267 272 256 252 260 251 233 216 220 224 218 214 214 219 215 212 212 208 202 204 211 211 210 212 213 213 212 213 214 215 216 217 218 219 219 219 218 218 218 219 219 221 219 216 215 214 214 216 212 202 202 203 200 208 211 210 207 203 201 199 201 203 204 203 200 199 199 199 199 196 196 199 200 201 207 213
186 200 245 257 242 252 237 225 236 250 277 279 282 298 280 269 201 233 248 274 270 261 265 260 264 277 279 260 199 192 214 220 221 223 227 226 223 221 220 215 214 218 216 212 212 215 216 214 214 215 216 217 217 218 220 219 218 218 218 220 219 216 217 216 215 216 216 217 218 213 204 209 210 207 214 214 209 203 199 198 198 201 203 203 202 198 200 200 199 199 199 198 197 198 197 200 203
211 221 246 260 237 260 253 219 235 244 249 266 271 283 289 303 229 232 228 253 263 266 275 271 272 280 284 285 236 182 214 224 224 226 228 230 230 228 228 227 224 224 219 216 217 219 219 217 216 216 217 218 218 219 219 220 219 218 219 220 219 215 216 215 216 217 218 219 218 217 214 216 215 211 214 210 205 200 197 196 197 201 204 204 202 200 202 200 198 199 199 199 197 198 196 197 200
249 238 240 256 248 253 258 201 197 190 221 253 262 288 301 276 266 244 219 240 254 265 275 277 280 281 281 288 268 225 226 226 227 227 227 229 230 230 230 228 227 226 224 226 225 223 222 219 218 218 218 218 219 219 218 220 220 220 220 221 220 217 217 216 218 218 218 219 218 219 219 218 214 212 213 210 206 203 201 201 202 204 206 206 203 201 202 199 199 199 199 199 197 197 195 197 198
245 256 248 257 252 251 258 242 203 214 242 258 283 300 286 266 272 254 219 240 253 262 270 271 277 278 274 275 265 255 246 235 237 234 230 231 233 235 234 233 232 231 230 233 231 226 225 223 221 220 219 219 219 219 219 220 221 221 220 221 220 218 218 218 219 219 219 219 219 220 219 216 214 212 213 211 210 208 207 207 207 208 207 206 203 201 201 201 201 200 199 198 196 197 196 198 198
223 250 259 257 251 256 264 257 237 243 248 256 278 278 271 269 281 274 251 250 254 258 266 268 272 274 267 265 264 261 257 248 247 244 238 238 241 241 240 239 235 234 236 236 234 231 230 228 225 222 220 220 219 217 218 221 222 221 219 221 221 219 220 219 219 220 220 219 219 220 219 216 215 214 214 213 212 211 211 211 210 210 209 206 204 202 202 203 203 200 198 197 196 197 196 198 199
212 242 266 267 269 270 269 265 248 241 237 214 244 263 267 277 307 280 256 245 251 253 263 268 271 274 267 258 258 257 256 253 251 249 243 241 241 241 244 241 233 237 240 237 237 237 234 231 228 225 223 222 219 214 214 218 219 219 219 221 222 220 222 221 220 220 220 220 219 220 219 218 217 216 216 214 212 212 212 213 211 211 210 207 204 204 204 203 204 202 198 197 196 197 197 197 198
181 258 281 272 273 277 257 262 258 240 229 203 225 261 267 274 16 276 248 203 243 253 262 267 265 271 268 254 251 251 251 252 251 248 247 243 231 235 241 236 232 241 241 237 240 240 236 233 231 229 225 223 219 214 212 213 214 217 219 222 223 222 223 222 221 221 219 220 220 220 220 219 219 218 217 215 213 213 213 213 211 211 210 207 205 206 205 204 204 204 200 198 197 197 198 197 198
1 313 290 275 275 279 247 247 255 229 219 204 216 258 269 264 202 256 258 182 211 264 269 269 263 266 270 265 257 246 245 249 248 238 241 240 231 233 235 235 238 242 240 241 242 240 237 235 233 232 228 225 221 215 212 214 213 215 216 219 221 221 224 224 222 220 219 220 221 221 221 220 220 219 219 218 215 214 214 213 212 211 211 208 206 207 207 205 203 204 203 200 198 198 199 199 199
308 302 289 284 284 284 263 247 241 198 198 180 192 251 265 248 230 247 256 228 210 256 267 269 265 265 267 270 266 251 248 249 244 232 236 239 237 237 239 244 246 244 244 246 244 240 239 237 234 234 229 226 223 218 217 219 216 213 213 213 216 216 220 223 221 220 220 221 222 222 222 221 221 221 220 219 217 216 215 214 212 212 211 208 208 207 206 206 203 202 202 200 200 200 200 200 200
272 231 278 291 290 286 266 221 171 174 180 158 177 256 268 249 249 255 249 181 217 246 259 267 265 263 262 262 263 261 256 248 243 240 240 240 241 244 247 251 252 249 248 248 244 243 242 238 235 233 229 228 226 222 221 222 219 215 215 214 215 214 216 221 221 221 221 221 223 223 223 223 223 222 221 220 217 217 216 215 214 212 211 209 208 207 206 206 204 202 200 199 200 200 201 202 200
276 272 246 274 277 280 268 147 150 196 176 162 192 258 272 267 271 273 252 147 246 262 265 269 268 267 266 261 261 267 265 254 251 253 252 248 248 252 255 258 258 255 251 248 249 248 244 240 237 233 230 229 227 225 223 223 223 220 219 219 217 215 217 221 221 221 221 222 223 224 224 224 224 223 222 220 217 217 218 216 215 213 212 209 208 207 206 205 204 202 200 199 199 199 201 202 200
253 272 259 237 233 266 282 265 194 217 203 171 200 249 268 267 276 279 338 126 237 268 273 275 274 271 269 265 261 265 270 268 262 260 262 258 256 261 262 262 261 258 255 253 253 251 245 241 240 236 232 230 228 228 226 224 224 223 222 220 217 218 221 223 222 222 223 223 224 224 224 224 223 223 222 221 219 218 218 217 216 215 213 210 208 208 206 206 205 203 201 200 200 199 201 202 201
221 234 262 257 257 274 288 287 217 183 171 190 216 253 275 270 280 280 274 243 254 271 279 281 279 276 273 269 263 260 268 273 269 269 277 272 263 268 268 266 265 263 261 257 253 251 246 241 239 237 234 232 230 229 227 225 223 224 224 221 222 226 226 224 223 224 224 224 224 224 224 224 223 223 223 222 220 219 219 218 217 216 214 211 209 208 207 207 205 203 202 202 201 200 201 202 201
234 219 246 253 256 270 286 287 306 144 185 213 225 241 260 270 283 284 282 284 280 279 281 281 280 279 277 275 272 267 265 268 274 284 292 289 279 277 273 271 270 266 263 260 255 251 248 243 240 239 236 233 230 228 227 225 224 225 225 226 228 230 228 225 224 225 224 224 224 224 225 225 224 224 223 222 220 220 220 219 218 217 214 211 210 209 207 207 206 204 203 202 202 201 200 201 202
258 257 267 274 252 247 262 270 291 181 241 240 238 244 255 266 275 279 282 284 281 279 278 277 277 277 279 281 276 272 272 272 282 294 294 292 289 280 274 274 273 267 263 261 257 252 248 244 241 241 236 231 230 229 227 225 224 224 225 227 230 229 228 226 225 225 225 225 225 226 226 226 225 224 223 222 220 220 220 219 219 218 215 211 210 208 207 207 206 204 204 203 202 201 200 199 201
280 290 279 283 278 261 262 267 272 314 282 267 260 265 271 274 276 280 285 286 279 277 277 275 273 275 279 279 273 276 286 289 291 294 293 293 287 280 277 276 273 271 265 261 257 250 246 242 240 239 235 231 229 225 223 221 219 219 220 222 226 227 226 227 226 227 227 227 227 227 227 226 225 224 223 222 221 220 220 219 219 218 215 211 209 208 208 209 207 204 204 203 201 200 201 201 201
302 284 270 269 274 273 271 274 274 99 281 272 267 276 280 279 279 280 283 282 272 268 272 274 275 279 279 274 278 294 302 302 301 296 298 296 291 287 281 278 278 276 270 263 255 249 246 242 239 237 234 230 226 220 218 217 214 212 214 218 222 224 224 226 228 229 228 229 228 227 227 226 225 224 223 221 221 220 219 218 217 216 214 211 211 211 211 211 209 206 204 203 202 200 201 202 200
269 263 270 267 264 269 267 273 283 332 268 271 263 274 280 278 276 274 271 270 266 266 272 278 280 279 276 279 298 331 321 303 300 305 318 309 295 291 287 289 290 285 282 278 267 260 256 248 242 238 235 231 227 223 221 220 217 214 215 220 223 222 223 225 227 229 229 229 229 228 227 226 224 224 223 221 220 219 218 217 216 215 214 212 212 212 213 212 210 207 204 201 201 200 201 203 197
260 256 265 265 265 276 268 259 273 281 255 281 279 280 281 274 270 265 261 261 267 273 271 270 272 271 276 306 336 333 314 302 308 334 348 314 298 296 302 315 318 312 308 301 290 281 270 257 249 243 239 235 231 227 225 225 222 221 221 222 224 223 225 229 229 231 231 230 230 229 227 226 225 224 223 221 220 219 218 216 216 215 214 213 212 211 212 212 210 208 205 201 199 198 201 204 198
245 243 260 269 264 273 269 243 255 271 260 282 292 286 275 265 260 259 266 269 268 270 261 254 259 269 290 320 315 302 299 304 324 346 336 313 310 313 331 347 347 341 334 327 317 303 288 272 263 255 247 242 237 232 230 228 225 225 225 224 227 225 228 233 234 235 235 233 232 231 229 227 226 224 223 222 220 219 219 217 217 216 215 214 213 211 211 211 210 209 207 203 199 194 194 203 202
238 228 245 262 262 262 267 279 318 303 271 271 299 290 268 247 237 225 286 274 258 259 256 253 256 277 298 299 281 269 285 312 329 329 322 319 325 342 356 0 356 351 345 340 335 323 309 293 279 268 257 249 244 239 235 230 225 225 223 224 228 229 232 233 233 234 233 232 233 232 232 230 228 226 225 223 221 220 219 219 218 217 216 215 213 213 212 212 211 210 208 205 202 199 195 197 202
260 220 222 247 264 271 274 290 318 304 275 100 337 314 291 167 161 124 109 240 277 268 254 252 256 284 285 294 295 297 321 330 321 312 311 315 337 1 8 8 3 356 352 349 349 351 342 324 303 282 264 253 249 246 240 232 225 222 215 214 218 220 225 226 227 229 224 226 231 232 233 232 230 229 227 226 224 222 221 220 219 218 217 216 214 213 213 213 212 211 210 207 206 205 200 194 198
274 225 214 240 259 268 272 289 301 293 295 40 10 310 288 247 212 237 248 255 275 263 256 261 273 283 297 304 318 15 22 359 326 314 319 341 4 11 10 13 13 3 356 359 5 12 12 6 353 320 281 259 255 252 243 234 227 222 216 215 214 213 218 223 224 224 221 227 231 231 233 233 231 230 229 228 227 224 223 221 220 220 219 217 216 213 213 214 213 212 212 210 210 208 202 196 195
272 27 198 228 248 262 263 277 263 279 313 306 180 223 273 284 243 226 229 220 247 255 270 301 296 305 317 311 16 62 36 336 304 354 11 14 17 17 12 16 21 14 7 11 16 19 21 22 20 6 336 288 266 260 248 236 230 225 223 223 222 222 223 224 220 218 222 229 230 230 232 233 232 231 229 229 228 227 224 223 222 221 219 218 217 215 214 215 214 214 213 213 212 209 205 203 200
281 61 40 142 249 280 250 267 264 289 312 292 178 182 259 281 245 122 150 205 233 245 289 326 321 345 318 323 58 71 43 329 320 32 35 27 22 18 16 19 23 20 17 19 21 24 27 27 26 22 9 342 295 276 258 244 237 230 227 228 229 232 233 232 228 223 224 228 230 231 231 232 233 232 230 229 229 228 226 225 224 222 220 219 218 217 216 216 216 215 215 213 211 210 209 208 206
132 115 100 87 91 58 100 269 289 305 287 267 167 170 252 286 249 127 149 228 237 205 120 312 310 13 327 22 63 64 27 344 360 27 33 30 25 18 19 25 26 21 18 19 22 26 29 27 25 23 15 3 332 298 271 254 246 238 233 232 233 237 238 236 235 231 228 227 228 229 229 229 230 230 229 228 229 228 228 227 226 224 222 220 220 218 218 218 218 217 217 216 214 212 212 212 210
124 143 105 88 166 116 116 261 322 290 273 233 166 178 220 288 259 146 165 219 259 177 108 323 348 23 0 42 71 57 24 32 36 35 30 24 20 19 19 23 26 23 19 17 19 25 29 27 23 19 15 9 353 327 291 266 254 245 240 238 238 238 237 236 235 235 232 226 223 224 225 225 226 230 230 228 228 228 228 228 227 226 224 222 222 221 220 220 218 218 218 218 217 216 215 215 214
171 185 313 292 249 189 174 178 138 246 267 199 157 180 202 245 248 145 161 31 236 228 328 346 8 360 347 37 59 38 31 41 47 45 35 22 15 16 15 15 20 22 21 18 17 22 26 24 21 17 15 10 2 348 319 285 265 256 250 246 245 243 241 240 241 240 234 228 225 223 221 220 222 227 229 228 228 228 228 227 226 225 225 225 224 223 221 221 220 219 218 218 218 218 218 217 215
194 198 232 264 280 267 239 229 178 236 261 93 131 182 209 243 249 232 272 294 128 219 298 348 2 338 349 34 38 32 37 38 43 41 32 26 19 16 11 10 15 17 18 16 16 21 22 21 20 17 14 12 7 358 340 310 282 270 260 254 251 248 244 243 245 243 238 235 232 226 221 218 218 222 226 228 230 230 228 226 226 225 226 226 226 225 223 222 221 220 219 219 219 219 219 219 218
187 193 194 215 241 262 257 246 242 261 265 67 68 180 232 269 271 247 258 275 66 78 2 356 354 351 19 40 35 33 36 31 35 34 27 25 20 15 10 11 16 16 14 13 14 17 20 21 20 16 16 16 13 5 352 331 304 286 274 264 258 253 248 245 244 244 242 238 234 231 228 224 223 227 231 232 232 232 229 228 227 227 227 227 226 226 225 224 223 221 221 220 220 221 221 221 221
189 185 183 219 225 247 258 249 260 281 309 62 137 187 242 285 13 293 285 10 33 31 35 17 21 39 49 50 39 35 32 27 27 27 27 23 17 14 11 10 15 16 13 11 11 15 20 21 18 16 16 16 16 12 2 347 326 306 291 279 269 262 256 251 249 247 245 241 237 235 233 231 233 235 236 236 234 233 232 229 228 228 228 227 227 226 225 224 224 223 222 222 222 222 222 222 222
179 114 178 241 232 230 261 280 272 304 320 260 194 227 254 274 295 291 182 81 39 29 46 45 44 52 55 45 35 30 27 27 23 22 23 19 15 14 12 11 13 14 11 10 11 15 19 19 17 17 17 16 17 16 10 359 344 328 311 297 284 274 266 261 258 253 250 246 242 240 239 239 241 241 240 239 237 235 234 231 229 229 228 228 228 227 226 225 225 224 223 224 224 224 224 224 224
137 151 203 208 64 221 257 279 257 205 278 251 225 256 258 272 283 232 133 116 99 77 57 58 52 48 50 42 33 26 23 26 24 23 21 15 14 13 11 12 12 9 9 11 15 17 18 16 14 16 17 18 18 17 16 10 358 345 332 316 301 288 277 271 266 261 259 255 250 249 248 247 247 246 244 243 241 238 236 233 231 230 229 229 229 228 227 226 225 225 225 225 226 226 226 226 226
146 183 214 98 54 10 250 274 249 206 255 245 240 259 264 274 272 139 78 26 68 68 48 53 49 45 49 41 32 28 24 24 24 25 22 18 16 12 10 10 9 9 11 15 18 18 18 17 16 16 16 16 17 17 18 15 8 359 349 337 320 305 292 283 276 272 267 262 258 257 254 252 252 251 248 247 245 241 238 236 233 231 230 230 229 229 228 227 226 226 226 227 228 227 227 228 228
105 245 336 68 222 232 191 221 231 234 250 247 237 252 263 264 263 310 339 10 63 59 42 50 45 45 49 40 37 32 25 23 21 22 19 17 15 11 9 5 4 9 13 16 19 20 21 20 19 21 20 19 19 20 19 17 15 10 2 353 340 324 310 298 289 284 276 269 266 264 260 258 257 255 253 250 247 243 240 238 235 232 231 231 230 229 228 227 226 226 226 227 228 227 227 228 228
50 331 337 4 251 249 235 187 165 241 252 257 239 240 249 250 281 311 335 44 75 60 55 57 49 56 56 47 44 34 31 28 19 17 14 12 13 10 8 3 1 6 10 12 14 17 19 19 19 21 23 24 23 22 22 19 17 16 11 7 357 341 328 315 303 295 286 278 274 270 267 265 262 260 257 253 249 245 242 239 236 234 232 231 230 229 228 227 226 226 226 226 227 227 227 228 229
148 175 235 271 217 247 280 250 195 225 250 259 254 244 238 257 297 310 1 74 77 69 74 67 58 73 75 68 59 43 42 33 20 19 11 6 8 6 7 5 4 6 10 12 13 16 17 16 16 17 19 22 20 20 21 18 16 16 15 16 13 5 354 339 324 311 298 290 285 280 277 274 269 265 262 257 252 248 245 242 239 236 234 232 230 229 228 227 226 226 226 226 227 226 226 227 227
206 222 220 223 221 218 257 249 208 201 228 233 250 257 250 252 299 46 88 93 85 82 84 75 63 64 70 79 77 67 58 39 27 22 10 8 5 1 3 5 7 10 12 14 15 16 17 15 13 13 15 16 14 14 14 13 14 15 17 19 19 18 14 4 350 333 317 304 296 291 288 283 276 271 267 262 256 252 249 246 242 239 236 234 232 231 230 228 226 226 226 226 226 226 226 226 225